Regional Weather Roundup
Issued by NWS

Home | Current Version | Previous Version | Graphics & Text | Print | Product List | Glossary On
Versions: 1 2 3 4 5 6 7 8 9 10 11 12 13 14 15 16 17 18 19 20 21 22 23 24 25 26 27 28 29 30 31 32 33 34 35 36 37 38 39 40 41 42 43 44 45 46 47 48 49 50
999
ASUS43 KLOT 041503
RWRIL

ILLINOIS REGIONAL WEATHER ROUNDUP
NATIONAL WEATHER SERVICE CHICAGO/ROMEOVILLE IL
900 AM CST SUN DEC 04 2016

NOTE: "FAIR" INDICATES FEW OR NO CLOUDS BELOW 12,000 FEET WITH NO
SIGNIFICANT WEATHER AND/OR OBSTRUCTIONS TO VISIBILITY.

* THESE STATIONS ARE NOT UNDER NWS QUALITY CONTROL. THEY ALSO MAY NOT
  REPORT WEATHER SUCH AS PRECIPITATION OR FOG.

ILZ001-002-007-009-015-016-024-041600-
NORTHWEST ILLINOIS

CITY           SKY/WX    TMP DP  RH WIND       PRES   REMARKS
MOLINE         HVY SNOW  32  30  92 SE6       30.07S VSB 1/4 WCI  26
STERLING*      LGT SNOW  30  30 100 E12       30.08F VSB 3/4 WCI  20
$$

ILZ003-004-008-010-011-017-018-041600-
NORTH CENTRAL ILLINOIS

CITY           SKY/WX    TMP DP  RH WIND       PRES   REMARKS
ROCKFORD       LGT SNOW  31  29  92 SE10      30.12F VSB 3/4 WCI  22
FREEPORT*      LGT SNOW  30  29  96 SE9       30.10F VSB 1   WCI  22
ROCHELLE*      SNOW      30  29  97 SE9       30.10F VSB 1/2 WCI  22
$$

ILZ005-006-012>014-019>023-041600-
NORTHEAST ILLINOIS

CITY           SKY/WX    TMP DP  RH WIND       PRES   REMARKS
CHICAGO-OHARE  CLOUDY    33  26  75 SE7       30.12F WCI  27
CHICAGO-MIDWAY CLOUDY    34  25  69 E8        30.13F WCI  27
AURORA         SNOW      32  28  85 SE9       30.12F VSB 1/2 WCI  24
LANSING*       CLOUDY    32  29  90 E8        30.14F WCI  25
WAUKEGAN       CLOUDY    33  27  78 CALM      30.12F
DUPAGE AIRPORT LGT SNOW  32  25  75 E6        30.11F WCI  26
WHEELING       CLOUDY    33  25  72 SE3       30.14F
NORTHERLY ISL    N/A     35  28  76 SE6         N/A  WCI  30
$$

LMZ740>746-041600-
SOUTHERN LAKE MICHIGAN

STATION/POSITION SKY/WX   TEMP    WIND        PRES    VSBY  WAVE
                          AIR SEA DIR/SP/G                  HT/PER
                          (F)     (DEG/KT/KT) (MB)    (MI)  (FT/S)
SOUTHERN BUOY              38 48  140/  6/ 10 1021.0F         0
HARRISON CRIB              36     130/ 11/ 13   N/A
BURNHAM HARBOR             34     170/  4/  7   N/A
CALUMET HARBOR             33     130/  5/  7 1020.2F
BURNS HARBOR               34     100/  7/  8 1021.3F
$$

ILZ025>027-034>036-040-047-049-050-058-095>099-041600-
WEST-CENTRAL ILLINOIS

CITY           SKY/WX    TMP DP  RH WIND       PRES   REMARKS
QUINCY         SNOW      33  33 100 E5        30.02F VSB 1/4 WCI  29
GALESBURG*     LGT SNOW  32  32  99 E5        30.05F WCI  27
MACOMB*        LGT SNOW  32  32 100 E5        30.07F VSB 3/4 WCI  27
JACKSONVILLE*  LGT SNOW  32  32 100 E7        30.03F VSB 1   WCI  26
PITTSFIELD*    HVY RAIN  33  33  99 NE5       30.03F WCI  29
$$

ILZ028>032-037-038-041>044-048-051>054-059>061-041600-
CENTRAL ILLINOIS

CITY           SKY/WX    TMP DP  RH WIND       PRES   REMARKS
BLOOMINGTON    LGT SNOW  32  30  92 E7        30.07F FOG     WCI  26
DECATUR        LGT RAIN N/A N/A N/A E10       30.04F
PEORIA         SNOW      33  32  96 E6        30.06F VSB 1/2 WCI  28
LINCOLN*       RAIN      35  34  96 E6        30.06F WCI  30
SPRINGFIELD    LGT SNOW  34  32  92 E6        30.05F FOG     WCI  29
TAYLORVILLE    LGT RAIN  34  33  96 E8        30.03F WCI  28
$$

ILZ033-039-045-046-055>057-062-063-041600-
EAST-CENTRAL ILLINOIS

CITY           SKY/WX    TMP DP  RH WIND       PRES   REMARKS
CHAMPAIGN      LGT SNOW  35  30  82 E13       30.05F WCI  26
MATTOON        CLOUDY    36  31  82 E7        30.03F WCI  30
PARIS*         CLOUDY    35  32  90 E8        30.07F WCI  29
$$

ILZ079-100>102-041600-
SOUTHWEST ILLINOIS

CITY           SKY/WX    TMP DP  RH WIND       PRES   REMARKS
ALTON          DRIZZLE   36  34  93 E7        30.02F WCI  30
BELLEVILLE     DRIZZLE   38  38  99 E7        30.01S FOG     WCI  32
CAHOKIA*       LGT RAIN  38  35  89 SE6       30.02R FOG     WCI  33
SPARTA*        DRIZZLE   37  35  92 SE6       30.02S WCI  33
$$

ILZ064>066-069>071-074>076-080>082-084>086-088>090-092>094-041600-
SOUTH-CENTRAL ILLINOIS

CITY           SKY/WX    TMP DP  RH WIND       PRES   REMARKS
CARBONDALE     CLOUDY    39  38  96 SE8       30.02R FOG     WCI  33
CAIRO*         DRIZZLE   40  40  97 E6        30.02S
EFFINGHAM*     CLOUDY    38  35  88 E8        30.04F WCI  32
MARION         CLOUDY    41  39  93 SE9       30.02F FOG
CENTRALIA*     CLOUDY    39  36  89 SE7       30.01S WCI  34
SALEM*         CLOUDY    39  35  84 E7        30.02S WCI  34
$$

ILZ067-068-072-073-078-083-087-091-041600-
SOUTHEAST ILLINOIS

CITY           SKY/WX    TMP DP  RH WIND       PRES   REMARKS
LAWRENCEVILLE  CLOUDY    39  34  82 E14       30.04F WCI  31
HARRISBURG*    CLOUDY    40  38  93 SE12      30.03F FOG
ROBINSON*      CLOUDY    37  33  86 E8        30.06F WCI  31
CARMI*         CLOUDY    39  37  93 E13       30.03F FOG     WCI  32
$$

ABBREVIATIONS USED IN REMARKS
   TC - TEMPERATURE IN CELSIUS
  WCI - WIND CHILL INDEX
   HX - HEAT INDEX
  VSB - VISIBILITY
$$





USA.gov is the U.S. government's official web portal to all federal, state and local government web resources and services.